Weather History for Debrecen, Hungary

Change the Weather History Date:

Tuesday, January 1, 2013

  Actual Average Record
Temperature  
Mean Temperature 24 °F -  
Max Temperature 26 °F 33 °F - ()
Min Temperature 21 °F 22 °F - ()
Degree Days  
Heating Degree Days 42    
Moisture  
Dew Point 24 °F    
Average Humidity 97    
Maximum Humidity 100    
Minimum Humidity 93    
Precipitation  
Precipitation 0.00 in 0.05 in - ()
Sea Level Pressure  
Sea Level Pressure 30.15 in    
Wind  
Wind Speed 1 mph ()    
Max Wind Speed 4 mph    
Max Gust Speed -    
Visibility 0.2 miles    
Events Fog    
T = Trace of Precipitation, MM = Missing Value Source: Averaged Metar Reports

Daily Weather History Graph

Daily Weather History Graph

Search for Another Location

Airport:

Trip Planner

Search our weather history database for the weather conditions in past years. The results will help you decide how hot, cold, wet, or windy it might be!

Date:

Astronomy

Jan. 01, 2013 Rise Set
Actual Time 7:21 AM CET 3:53 PM CET
Civil Twilight 6:45 AM CET 4:28 PM CET
Nautical Twilight 6:06 AM CET 5:07 PM CET
Astronomical Twilight 5:29 AM CET 5:45 PM CET
Moon 8:24 PM CET (1/1) 9:07 AM CET (1/1)
Length of Visible Light 9h 43m
Length of Day
8h 31m
Waning Gibbous, 85% of the Moon is Illuminated
Jan 1
Waning Gibbous
Jan 5
Last Quarter
Jan 11
New
Jan 19
First Quarter
Jan 27
Full

Hourly Weather History & Observations

Time (CET) Temp. Dew Point Humidity Pressure Visibility Wind Dir Wind Speed Gust Speed Precip Events Conditions
1:00 AM 24 °F 23 °F 96% 30.29 in - SW 2.2 mph - -  
5:15 AM 23.0 °F 23.0 °F 100% 30.18 in 0.2 mi East 2.3 mph - N/A Fog Light Freezing Fog
5:45 AM 23.0 °F 23.0 °F 100% 30.18 in 0.2 mi East 2.3 mph - N/A Fog Light Freezing Fog
6:00 AM - - N/A% - 0.2 mi Variable 3.5 mph - N/A Fog Light Freezing Fog
6:15 AM 23.0 °F 23.0 °F 100% 30.18 in 0.2 mi East 2.3 mph - N/A Fog Light Freezing Fog
6:45 AM 23.0 °F 23.0 °F 100% 30.18 in 0.2 mi NE 2.3 mph - N/A Fog Light Freezing Fog
7:00 AM 23 °F 22 °F 95% 30.20 in 0 mi NE 2.2 mph - - Fog Heavy Fog
7:15 AM 23.0 °F 21.2 °F 93% 30.18 in 0.1 mi NE 1.2 mph - N/A Fog Light Freezing Fog
7:45 AM 21.2 °F 21.2 °F 100% 30.18 in 0.1 mi ESE 1.2 mph - N/A Fog Light Freezing Fog
8:15 AM 23.0 °F 21.2 °F 93% 30.18 in 0.1 mi SE 1.2 mph - N/A Fog Light Freezing Fog
8:45 AM 23.0 °F 21.2 °F 93% 30.18 in 0.1 mi Calm Calm - N/A Fog Light Freezing Fog
9:00 AM - - N/A% - 0.1 mi Variable 2.3 mph - N/A Fog Light Freezing Fog
9:15 AM 23.0 °F 21.2 °F 93% 30.18 in 0.1 mi Calm Calm - N/A Fog Light Freezing Fog
9:45 AM 23.0 °F 21.2 °F 93% 30.18 in 0.1 mi NE 1.2 mph - N/A Fog Light Freezing Fog
10:15 AM 23.0 °F 23.0 °F 100% 30.18 in 0.1 mi ENE 1.2 mph - N/A Fog Light Freezing Fog
10:45 AM 23.0 °F 23.0 °F 100% 30.15 in 0.1 mi Calm Calm - N/A Fog Light Freezing Fog
11:15 AM 23.0 °F 23.0 °F 100% 30.15 in 0.1 mi SE 1.2 mph - N/A Fog Light Freezing Fog
11:45 AM 24.8 °F 23.0 °F 93% 30.15 in 0.1 mi Calm Calm - N/A Fog Light Freezing Fog
12:00 PM - - N/A% - 0.1 mi Variable 2.3 mph - N/A Fog Light Freezing Fog
12:15 PM 24.8 °F 24.8 °F 100% 30.12 in 0.4 mi Calm Calm - N/A Fog Light Freezing Fog
12:45 PM 24.8 °F 24.8 °F 100% 30.12 in 0.4 mi Calm Calm - N/A Fog Light Freezing Fog
1:00 PM 25 °F 25 °F 98% 30.16 in 0 mi Calm Calm - - Fog Partial Fog
1:15 PM 24.8 °F 24.8 °F 100% 30.12 in 0.4 mi ENE 1.2 mph - N/A Fog Light Freezing Fog
1:45 PM 26.6 °F 24.8 °F 93% 30.12 in 0.5 mi East 2.3 mph - N/A Fog Light Freezing Fog
1:46 PM 26.6 °F 24.8 °F 93% 30.15 in 0.5 mi ENE 2.3 mph - N/A Fog Light Freezing Fog
2:15 PM 26.6 °F 26.6 °F 100% 30.12 in 0.6 mi East 2.3 mph - N/A Fog Light Freezing Fog
2:45 PM 26.6 °F 26.6 °F 100% 30.12 in 0.6 mi ENE 2.3 mph - N/A Fog Light Freezing Fog
3:15 PM 26.6 °F 26.6 °F 100% 30.12 in 0.6 mi NNE 2.3 mph - N/A Fog Light Freezing Fog
3:45 PM 26.6 °F 24.8 °F 93% 30.09 in 0.4 mi NE 1.2 mph - N/A Fog Light Freezing Fog
3:46 PM 26.6 °F 24.8 °F 93% 30.12 in 0.4 mi ENE 1.2 mph - N/A Fog Light Freezing Fog
4:15 PM 26.6 °F 24.8 °F 93% 30.09 in 0.1 mi East 1.2 mph - N/A Fog Light Freezing Fog
4:45 PM 26.6 °F 24.8 °F 93% 30.09 in 0.1 mi Calm Calm - N/A Fog Light Freezing Fog
5:20 PM - - N/A% - - North - - N/A   Unknown
7:00 PM 24 °F 24 °F 98% 30.12 in - NW 2.2 mph - -  
11:01 PM 23.0 °F 21.2 °F 93% 30.09 in - Calm Calm - N/A   Unknown